This demonstration page uses our WeatherBlox Daily Observations layout. Learn more.

41.55636, -103.73856

Hourly Observations for March 25, 2019

Temp ( °F °C ) Dew Point ( °F °C ) Humidity (%) Winds ( mph kmh ) Pressure ( in mb ) Visibility ( mi km ) Precip ( " mm )
12:58 am 00:58 Mostly Cloudy 40 4.2 36 2.2 87 87 E 7 11 30.19 1023 10 16.0934 0 0
1:58 am 01:58 Cloudy with Light Rain 39 3.9 36 2.1 88 88 ESE 3 6 30.23 1024 10 16.0934 0 0
2:58 am 02:58 Mostly Cloudy 38 3.4 36 2.2 92 92 ESE 6 9 30.22 1023 10 16.0934 0.01 0.254
3:58 am 03:58 Mostly Cloudy 37 2.7 35 1.9 95 95 S 6 9 30.24 1024 8 12.87472 0 0
5:58 am 05:58 Cloudy with Light Showers 37 2.9 36 2.2 95 95 S 7 11 30.24 1024 2 3.21868 0 0
6:58 am 06:58 Cloudy with Showers 37 2.7 36 2 95 95 SW 3 6 30.24 1024 1.75 2.816345 0.02 0.508
7:58 am 07:58 Cloudy with Light Rain 37 2.5 35 1.8 95 95 SSW 10 17 30.24 1024 6 9.65604 0.05 1.27
8:58 am 08:58 Cloudy with Light Rain 36 2 33 0.8 92 92 SSW 6 9 30.24 1024 10 16.0934 0.07 1.778
9:58 am 09:58 Mostly Cloudy with Mist and Fog 36 2.3 35 1.4 94 94 SSW 13 20 30.24 1024 2.75 4.425685 0 0
10:58 am 10:58 Mostly Cloudy with Mist and Fog 35 1.7 34 0.9 94 94 SW 13 20 30.24 1024 2.5 4.02335 0 0
11:58 am 11:58 Clear 34 1.3 32 0.2 92 92 SSW 14 22 30.26 1025 10 16.0934 0 0
12:58 pm 12:58 Mostly Cloudy with Light Rain 32 0.2 31 -0.5 95 95 SW 13 20 30.28 1026 1 1.60934 0 0
1:58 pm 13:58 Mostly Cloudy with Fog 31 -0.3 30 -0.9 96 96 SW 9 15 30.29 1026 0.25 0.402335 0 0
2:58 pm 14:58 Sunny 38 3.6 29 -1.4 70 70 W 13 20 30.27 1025 10 16.0934 0 0
3:58 pm 15:58 Mostly Sunny 43 6.1 25 -3.9 49 49 W 26 43 30.28 1026 10 16.0934 0 0
4:58 pm 16:58 Mostly Cloudy 44 6.4 27 -2.7 53 53 WNW 28 44 30.28 1025 10 16.0934 0 0
5:58 pm 17:58 Mostly Cloudy 44 6.6 26 -3.1 50 50 WNW 26 43 30.28 1025 10 16.0934 0 0
8:58 pm 20:58 Mostly Sunny 49 9.5 31 -0.8 49 49 WNW 21 33 30.23 1024 10 16.0934 0 0
9:58 pm 21:58 Mostly Cloudy 48 9 30 -0.9 50 50 NW 18 30 30.24 1024 10 16.0934 0 0
10:58 pm 22:58 Mostly Sunny 49 9.3 32 0 53 53 NNW 14 22 30.26 1025 10 16.0934 0 0
11:58 pm 23:58 Mostly Cloudy 46 7.9 31 -0.5 56 56 NNW 15 24 30.28 1025 10 16.0934 0 0

Powered by AerisWeather